Regional Weather Roundup
Issued by NWS

Home | Current Version | Previous Version | Graphics & Text | Print | Product List | Glossary On
Versions: 1 2 3 4 5 6 7 8 9 10 11 12 13 14 15 16 17 18 19 20 21 22 23 24 25 26 27
000
ASUS45 KBOU 290207
RWRCO

WEATHER ROUNDUP FOR COLORADO
NATIONAL WEATHER SERVICE DENVER/BOULDER CO
800 PM MDT SUN AUG 28 2016

NOTE: "FAIR" INDICATES FEW OR NO CLOUDS BELOW 12000 FEET WITH NO
SIGNIFICANT WEATHER AND/OR OBSTRUCTIONS TO VISIBILITY.

COZ001>005-013-030-031-290300-
...NORTHWEST COLORADO...

CITY           SKY/WX    TMP DP  RH WIND       PRES   REMARKS
CRAIG          FAIR      70  37  29 SE17G29   30.26R
HAYDEN         FAIR      66  36  32 SE20      30.31R
MEEKER         FAIR      65  44  46 E9        30.29R
MOUNT WERNER   NOT AVBL
STEAMBOAT SPGS FAIR      65  39  38 E15       30.32S
WALDEN         FAIR      54  37  54 SW7       30.44R
$$

COZ006>008-011-290300-
...WEST CENTRAL VALLEYS...

CITY           SKY/WX    TMP DP  RH WIND       PRES   REMARKS
GRAND JUNCTION FAIR      73  42  32 NW7       30.19R
MONTROSE       FAIR      62  44  51 S24G37    30.33R
EAGLE          CLOUDY    61  46  59 NE5       30.40S
RIFLE          FAIR      64  48  56 SE20      30.28R
DELTA          FAIR      72  40  31 SE9       30.26R
NUCLA          FAIR     N/A N/A N/A E14G20    30.33R
$$

COZ017>023-064>068-290300-
...SOUTHWEST COLORADO...

CITY           SKY/WX    TMP DP  RH WIND       PRES   REMARKS
DURANGO        FAIR      60  43  53 N5        30.29R
CORTEZ         FAIR      64  47  53 S12       30.26R
PAGOSA SPRINGS FAIR      64  40  42 W8        30.35R
TELLURIDE      HVY RAIN  46  45  99 SW3       30.56R
WOLF CREEK PAS CLOUDY    37  36  93 MISG      30.64R THUNDER
$$

COZ009-010-012-014-032>034-037-058>063-290300-
...CENTRAL COLORADO...

CITY           SKY/WX    TMP DP  RH WIND       PRES   REMARKS
ASPEN          MOCLDY    57  39  51 CALM      30.43R
BUENA VISTA    FAIR      58  39  49 NW23G29   30.42R
COPPER MTN     MOCLDY    41  36  81 S9        30.69S
BERTHOUD PASS  FAIR      36  23  60 N22       30.70R
COTTONWOOD PAS FAIR      54  36  50 CALM      30.51R THUNDER
GUNNISON       FAIR      57  41  54 N6        30.41S
KREMMLING      MOCLDY    54  41  62 CALM      30.44S
LEADVILLE      FAIR      44  39  82 N7        30.56R
MONARCH PASS   MOCLDY    43  36  75 W18G29    30.73R
SALIDA         MOCLDY    64  39  39 N12       30.45R
SUNLIGHT       MOCLDY    43  41  93 SW8       30.62S
WILKERSON PASS TSTM      43  36  75 NW12G28   30.63R
$$

COZ069>075-290300-
...SAN LUIS VALLEY/SANGRE DE CRISTO MOUNTAINS...

CITY           SKY/WX    TMP DP  RH WIND       PRES   REMARKS
ALAMOSA        MOCLDY    64  42  44 N9        30.31R
LA VETA PASS   MOCLDY    54  36  50 E8        30.50R
SAGUACHE       FAIR      63  36  36 NW13      30.34R
$$

COZ035-036-038>040-290300-
...NORTHERN COLORADO FRONT RANGE...

CITY           SKY/WX    TMP DP  RH WIND       PRES   REMARKS
DENVER INTL AP MOCLDY    71  45  39 SE9       30.21R
DMNS CITY PARK   N/A     70  42  36 S2        30.21R
AURORA         MOCLDY    68  44  42 SE7       30.24R
FRONT RANGE AP MOCLDY    72  46  40 SE7G20    30.23R
ERIE MUNI ARPT FAIR      73  39  29 SE9       30.18R
BOULDER MUN AP FAIR      73  37  27 SW6       30.18R
CENTENNIAL     MOCLDY    69  40  34 SE7       30.25R
BROOMFIELD     MOCLDY    73  39  29 W10       30.21
FORT COLLINS   FAIR      73  45  35 E15       30.16R
LONGMONT       FAIR      75  43  31 E3        30.18R
$$

COZ041-046-047-076>085-087-088-290300-
...PIKES PEAK/PALMER DIVIDE AND SOUTHERN FOOTHILLS...

CITY           SKY/WX    TMP DP  RH WIND       PRES   REMARKS
COLO. SPRINGS  MOCLDY    72  39  30 NE13      30.25R THUNDER
A. F. ACADEMY  FAIR      64  46  52 N6        30.27R
SCHRIEVER AFB  NOT AVBL
ELLICOTT       NOT AVBL
FALCON         MOCLDY    64  40  40 NE7       30.31S
FORT CARSON    TSTM      72  46  39 NE8       30.22R
LIMON          FAIR      64  47  53 N9        30.22R
MONUMENT HILL  FAIR      59  43  55 NE5       30.34R
TRINIDAD       FAIR      70  48  45 N3        30.19R
$$

COZ042>045-048>051-090-091-290300-
...NORTHEAST COLORADO...

CITY           SKY/WX    TMP DP  RH WIND       PRES   REMARKS
GREELEY ARPT   FAIR      70  48  46 SE20G25   30.19R
AKRON          FAIR      72  49  44 N9        30.18R
BURLINGTON     FAIR      73  54  51 S8        30.15R
WRAY           NOT AVBL
STERLING       FAIR      75  45  33 NW16G23   30.13R
HOLYOKE        FAIR      72  59  64 SE6       30.13R
FORT MORGAN    CLOUDY    63  53  71 W20       30.22R
$$

COZ086-089-092>099-290300-
...SOUTHEAST COLORADO...

CITY           SKY/WX    TMP DP  RH WIND       PRES   REMARKS
PUEBLO         FAIR      80  45  28 NE12      30.12R
LA JUNTA       FAIR      80  55  42 E13       30.09R
LAMAR          FAIR      79  59  50 SE16      30.06R
SPRINGFIELD      N/A     69  60  73 S8        30.13R
$$




USA.gov is the U.S. government's official web portal to all federal, state and local government web resources and services.